Location: Lecco
(45.8566°N, 9.3977°E)
Time: 10:51:38
(UTC+02:00)

Courier 1B Rocket - Pass Details

Date: 27 August 2019
Orbit: 920 x 1202 km, 28.2° (Epoch: 23 September)

Event Time Altitude Azimuth Distance (km) Brightness Sun altitude
Rises 05:00:21 0° 241° (WSW) 3,866 - -16.0°
Reaches altitude 10° 05:03:54 10° 224° (SW) 2,962 - -15.5°
Exits shadow 05:06:07 16° 208° (SSW) 2,572 6.7 -15.2°
Maximum altitude 05:08:47 19° 182° (S) 2,405 6.7 -14.8°
Drops below altitude 10° 05:13:51 10° 140° (SE) 3,079 7.7 -14.0°
Sets 05:17:38 0° 124° (SE) 4,070 8.6 -13.4°
